Location: Groß Eilstorf
(52.8200°N, 9.4552°E)
Time: 11:21:43
(UTC+00:00)

Cosmos 1766 Rocket - Pass Details

Date: 15 May 2026
Orbit: 597 x 625 km, 82.5° (Epoch: 8 June)

Event Time Altitude Azimuth Distance (km) Brightness Sun altitude
Rises 23:02:00 0° 350° (N) 2,859 8.7 -18.0°
Reaches altitude 10° 23:04:14 10° 353° (N) 1,950 7.4 -18.1°
Maximum altitude 23:08:32 69° 77° (ENE) 646 3.6 -18.1°
Enters shadow 23:10:09 36° 150° (SSE) 951 4.0 -18.1°
